Tracking 33873 objects as of 21-Apr-2026
HD Live streaming from Space Station
objects crossing your sky now

STARLINK-11100

Track STARLINK-11100 now!
10-day predictions
STARLINK-11100 is classified as:


NORAD ID: 59713
Int'l Code: 2024-088F
Perigee: 366.5 km
Apogee: 367.3 km
Inclination: 53.2 °
Period: 91.7 minutes
Semi major axis: 6737 km
RCS: Unknown
Launch date: May 10, 2024
Source: United States (US)
Launch site: AIR FORCE WESTERN TEST RANGE (AFWTR)
Your satellite tracking list
Your tracking list is empty




NASA's NSSDC Master Catalog

Two Line Element Set (TLE):
1 59713U 24088F   26110.72731928  .00004201  00000-0  39550-4 0  9999
2 59713  53.1613 119.1199 0000604  16.4867 343.6171 15.69685105112879
Source of the keplerian elements: AFSPC